Weather History for KLNK - January, 2001

Change the Weather History Date:

Sunday, January 7, 2001

  Actual Average Record
Temperature  
Mean Temperature 34 °F 24 °F  
Max Temperature 39 °F 35 °F 65 °F (2003)
Min Temperature 30 °F 14 °F -20 °F (1974)
Degree Days  
Heating Degree Days 30 41  
Month to date heating degree days 284  
Since 1 July heating degree days 2729  
Cooling Degree Days 0 0  
Month to date cooling degree days 0  
Year to date cooling degree days 0  
Moisture  
Dew Point 31 °F    
Average Humidity 83    
Maximum Humidity 93    
Minimum Humidity 73    
Precipitation  
Precipitation 0.00 in 0.02 in 0.60 in (1937)
Month to date precipitation 0.14  
Year to date precipitation 0.14  
Snow  
Snow 0.00 in 0.20 in - ()
Month to date snowfall 1.1  
Since 1 July snowfall 9.8  
Snow Depth 2.00 in    
Sea Level Pressure  
Sea Level Pressure 30.12 in    
Wind  
Wind Speed 10 mph (NW)    
Max Wind Speed 17 mph    
Max Gust Speed -    
Visibility 10 miles    
Events Rain    
T = Trace of Precipitation, MM = Missing Value Source: NWS Daily Summary

Daily Weather History Graph

Daily Weather History Graph

Search for Another Location

Airport or City:

Trip Planner

Search our weather history database for the weather conditions in past years. The results will help you decide how hot, cold, wet, or windy it might be!

Date:

Astronomy

Jan. 07, 2001 Rise Set
Actual Time 7:51 AM CST 5:15 PM CST
Civil Twilight 7:20 AM CST 5:46 PM CST
Nautical Twilight 6:46 AM CST 6:20 PM CST
Astronomical Twilight 6:13 AM CST 6:53 PM CST
Moon 3:19 PM CST (1/7) 5:23 AM CST (1/7)
Length of Visible Light 10h 25m
Length of Day
9h 24m
Waxing Gibbous, 94% of the Moon is Illuminated
Jan 7
Waxing Gibbous
Jan 9
Full
Jan 16
Last Quarter
Jan 24
New
Feb 1
First Quarter

Hourly Weather History & Observations

Time (CST) Temp. Windchill Dew Point Humidity Pressure Visibility Wind Dir Wind Speed Gust Speed Precip Events Conditions
12:54 AM 36.0 °F 28.5 °F 28.0 °F 73% 29.97 in 10.0 mi NNW 10.4 mph - N/A   Clear
1:54 AM 35.1 °F 27.9 °F 28.9 °F 78% 29.99 in 10.0 mi NNW 9.2 mph - N/A   Clear
2:54 AM 36.0 °F 27.5 °F 30.0 °F 79% 30.01 in 10.0 mi NNW 12.7 mph - N/A   Clear
3:54 AM 35.1 °F 26.4 °F 28.9 °F 78% 30.03 in 10.0 mi NNW 12.7 mph - N/A   Clear
4:54 AM 33.1 °F 25.5 °F 28.0 °F 82% 30.04 in 10.0 mi NNW 9.2 mph - N/A   Clear
5:54 AM 30.9 °F 27.5 °F 27.0 °F 85% 30.06 in 10.0 mi NNW 3.5 mph - N/A   Clear
6:54 AM 32.0 °F 22.5 °F 28.0 °F 85% 30.08 in 10.0 mi NW 12.7 mph - N/A   Clear
7:54 AM 33.1 °F 24.9 °F 28.0 °F 82% 30.09 in 10.0 mi NW 10.4 mph - N/A   Scattered Clouds
8:54 AM 34.0 °F 25.5 °F 28.9 °F 82% 30.11 in 10.0 mi NW 11.5 mph - N/A   Mostly Cloudy
9:54 AM 36.0 °F 29.0 °F 30.0 °F 79% 30.12 in 10.0 mi NW 9.2 mph - N/A   Mostly Cloudy
10:54 AM 39.0 °F 30.6 °F 30.9 °F 73% 30.14 in 10.0 mi NNW 15.0 mph - N/A   Mostly Cloudy
11:54 AM 37.9 °F 29.6 °F 32.0 °F 79% 30.14 in 10.0 mi NNW 13.8 mph - N/A   Overcast
12:54 PM 39.0 °F 31.4 °F 32.0 °F 76% 30.13 in 10.0 mi NNW 12.7 mph - N/A   Overcast
1:41 PM 39.2 °F 30.5 °F 32.0 °F 75% 30.11 in 10.0 mi NNW 16.1 mph - N/A   Overcast
1:54 PM 39.0 °F 29.9 °F 32.0 °F 76% 30.13 in 10.0 mi NNW 17.3 mph - N/A   Overcast
2:54 PM 39.0 °F 32.3 °F 32.0 °F 76% 30.14 in 10.0 mi NNW 10.4 mph - N/A   Overcast
3:25 PM 39.2 °F 32.5 °F 32.0 °F 75% 30.12 in 10.0 mi NNW 10.4 mph - N/A   Overcast
3:54 PM 39.0 °F 32.3 °F 32.0 °F 76% 30.16 in 10.0 mi NW 10.4 mph - N/A   Overcast
4:18 PM 37.4 °F 29.3 °F 32.0 °F 81% 30.13 in 10.0 mi NNW 12.7 mph - 0.00 in   Overcast
4:54 PM 37.0 °F 29.8 °F 34.0 °F 89% 30.18 in 10.0 mi NNW 10.4 mph - 0.00 in Rain Light Rain
5:09 PM 35.6 °F 28.6 °F 33.8 °F 93% 30.15 in 10.0 mi NNW 9.2 mph - 0.00 in   Overcast
5:16 PM 35.6 °F 28.6 °F 33.8 °F 93% 30.15 in 10.0 mi NNW 9.2 mph - 0.00 in   Overcast
5:54 PM 36.0 °F 31.1 °F 34.0 °F 93% 30.19 in 10.0 mi NNW 5.8 mph - 0.00 in   Overcast
6:54 PM 35.1 °F 31.0 °F 33.1 °F 92% 30.19 in 10.0 mi NW 4.6 mph - N/A   Overcast
7:10 PM 35.6 °F 29.2 °F 32.0 °F 87% 30.16 in 10.0 mi NW 8.1 mph - N/A   Overcast
7:38 PM 35.6 °F 28.0 °F 30.2 °F 81% 30.17 in 10.0 mi NNW 10.4 mph - N/A   Overcast
7:54 PM 35.1 °F 27.4 °F 30.9 °F 85% 30.20 in 10.0 mi NW 10.4 mph - N/A   Mostly Cloudy
8:54 PM 34.0 °F 27.2 °F 30.9 °F 89% 30.20 in 10.0 mi NW 8.1 mph - N/A   Overcast
9:54 PM 34.0 °F 29.8 °F 30.9 °F 89% 30.19 in 10.0 mi NW 4.6 mph - N/A   Overcast
10:54 PM 33.1 °F 26.9 °F 30.0 °F 89% 30.19 in 10.0 mi WNW 6.9 mph - N/A   Partly Cloudy
11:54 PM 33.1 °F 26.9 °F 30.0 °F 89% 30.19 in 10.0 mi NW 6.9 mph - N/A   Partly Cloudy